User: anonymous   Login
Location: ??
(35.1714°N, 128.2806°E)
Time: 09:08:11
(UTC+00:00)
Language:

Cosmos 1954 Rocket - Orbit

View from above orbital plane
View from above orbital plane
View from above satellite
View from above satellite

Ground track
Ground track

The orbit data is extracted from the following two-line orbital elements,

1 19257U 88053B   21019.18809485  .00000023  00000-0  16580-4 0  9993
2 19257  74.0504 324.2990 0021733 250.9050 208.6375 14.37499294707289
Epoch (UTC): 19 January 2021 04:30:51
Eccentricity: 0.0021733
inclination: 74.0504°
perigee height: 751 km
apogee height: 782 km
right ascension of ascending node: 324.2990°
argument of perigee: 250.9050°
revolutions per day: 14.37499294
mean anomaly at epoch: 208.6375°
orbit number at epoch: 70728

The dashed part of the orbit path shows where the satellite is in the earth's shadow,  

DLR